GW1410 Weather Reports


Display with metric or nautical units.
time (UTC)temp
F
wind
direction
speed
MPH
gust
MPH
rain 1hr
in
rain 24hr
in
rain mn
in
humidity
%
barometer
mb
20260507110000 72 66 4.0 10.0 0.00 0.00 0.00 63 1015.8
20260507104600 72 44 5.0 14.0 0.00 0.00 0.00 63 1015.7
20260507103041 71 229 6.0 11.0 0.00 0.00 0.00 65 1015.8
20260507101541 71 252 4.0 11.0 0.00 0.00 0.00 65 1015.8
20260507100024 71 345 4.0 12.0 0.00 0.00 0.00 65 1016.0
20260507094519 70 229 5.0 9.0 0.00 0.00 0.00 66 1016.0
20260507093002 70 304 4.0 10.0 0.00 0.00 0.00 64 1016.3
20260507091559 70 156 3.0 10.0 0.00 0.00 0.00 65 1016.3
20260507090040 69 280 4.0 10.0 0.00 0.00 0.00 63 1016.4
20260507084539 70 67 3.0 8.0 0.00 0.00 0.00 64 1016.6
20260507083019 69 181 3.0 10.0 0.00 0.00 0.00 65 1016.6
20260507081519 69 17 5.0 11.0 0.00 0.00 0.00 65 1016.7
20260507074607 70 235 3.0 8.0 0.00 0.00 0.00 65 1016.9
20260507073039 69 268 4.0 7.0 0.00 0.00 0.00 66 1016.7
20260507071534 69 313 4.0 7.0 0.00 0.00 0.00 67 1016.7
20260507070013 69 330 2.0 7.0 0.00 0.00 0.00 68 1016.9
20260507064509 69 279 1.0 5.0 0.00 0.00 0.00 70 1017.1
20260507063056 68 360 2.0 6.0 0.00 0.00 0.00 69 1017.1
20260507061548 67 67 1.0 5.0 0.00 0.00 0.00 72 1017.0
20260507060037 65 60 1.0 4.0 0.00 0.00 0.00 74 1017.2
20260507054520 63 66 1.0 5.0 0.00 0.00 0.00 78 1017.3
20260507053117 61 53 1.0 6.0 0.00 0.00 0.00 81 1017.2
20260507051600 59 355 1.0 4.0 0.00 0.00 0.00 83 1017.3
20260507050055 58 360 0.0 2.0 0.00 0.00 0.00 84 1017.2
20260507044537 56 360 0.0 0.0 0.00 0.00 0.00 84 1017.2
20260507043037 56 360 0.0 2.0 0.00 0.00 0.00 84 1017.1
20260507041516 55 360 1.0 3.0 0.00 0.00 0.00 83 1017.0
20260507040017 54 360 0.0 0.0 0.00 0.00 0.00 83 1016.8
20260507034554 54 360 0.0 2.0 0.00 0.00 0.00 82 1016.8
20260507033051 54 360 0.0 2.0 0.00 0.00 0.00 82 1016.7
20260507031531 54 360 0.0 0.0 0.00 0.00 0.00 82 1016.5
20260507030030 54 360 0.0 0.0 0.00 0.00 0.00 81 1016.4
20260507024509 54 360 0.0 0.0 0.00 0.00 0.00 81 1016.3
20260507023009 54 360 0.0 0.0 0.00 0.00 0.00 81 1016.0
20260507021550 54 360 0.0 0.0 0.00 0.00 0.00 80 1016.1
20260507020051 54 360 0.0 0.0 0.00 0.00 0.00 80 1016.1
20260507014529 55 360 0.0 0.0 0.00 0.00 0.00 80 1016.1
20260507013044 55 360 0.0 0.0 0.00 0.00 0.00 80 1016.0
20260507011510 56 360 0.0 0.0 0.00 0.00 0.00 79 1016.1
20260507010008 56 360 0.0 0.0 0.00 0.00 0.00 79 1016.0
20260507004550 56 360 0.0 0.0 0.00 0.00 0.00 79 1016.0
20260507003047 56 360 0.0 0.0 0.00 0.00 0.00 79 1016.0
20260507001532 57 360 0.0 1.0 0.00 0.00 0.00 79 1016.1
20260507000028 57 360 0.0 1.0 0.00 0.00 0.00 79 1016.1
20260506234515 57 360 0.0 0.0 0.00 0.00 0.00 78 1016.2
20260506233008 57 360 0.0 0.0 0.00 0.00 0.00 78 1016.2
20260506231549 58 360 0.0 0.0 0.00 0.00 0.00 77 1016.2
20260506230048 58 360 0.0 0.0 0.00 0.00 0.00 77 1016.2
20260506224528 58 360 0.0 0.0 0.00 0.00 0.00 77 1016.3
20260506223026 58 360 0.0 2.0 0.00 0.00 0.00 76 1016.4
20260506221508 59 360 1.0 2.0 0.00 0.00 0.00 75 1016.5
20260506220015 59 360 1.0 2.0 0.00 0.00 0.00 75 1016.5
20260506214550 60 360 0.0 2.0 0.00 0.00 0.00 75 1016.6
20260506213045 60 360 0.0 2.0 0.00 0.00 0.00 75 1016.5
20260506211529 60 360 0.0 3.0 0.00 0.00 0.00 75 1016.6
20260506210033 60 360 0.0 2.0 0.00 0.00 0.00 75 1016.5
20260506204507 61 360 1.0 4.0 0.00 0.00 0.00 74 1016.7
20260506203006 61 346 1.0 2.0 0.00 0.00 0.00 73 1016.7
20260506201548 61 346 0.0 2.0 0.00 0.00 0.00 73 1016.7
20260506200049 61 346 0.0 3.0 0.00 0.00 0.00 72 1016.7
20260506194530 61 346 1.0 3.0 0.00 0.00 0.00 72 1016.8
20260506193030 62 338 1.0 3.0 0.00 0.00 0.00 70 1016.7
20260506191512 62 338 1.0 3.0 0.00 0.00 0.00 69 1016.8
20260506190011 62 337 1.0 3.0 0.00 0.00 0.00 68 1016.8
20260506184552 63 299 0.0 0.0 0.00 0.00 0.00 68 1016.7
20260506183050 63 299 0.0 0.0 0.00 0.00 0.00 68 1016.5
20260506181534 63 299 0.0 1.0 0.00 0.00 0.00 67 1016.4
20260506180036 63 299 0.0 2.0 0.00 0.00 0.00 67 1016.3
20260506174514 64 304 0.0 2.0 0.00 0.00 0.00 66 1016.3
20260506173020 64 304 1.0 4.0 0.00 0.00 0.00 66 1016.1
20260506171603 64 306 1.0 4.0 0.00 0.00 0.00 65 1016.1
20260506164550 64 264 1.0 3.0 0.00 0.00 0.00 64 1015.7
20260506163040 65 189 1.0 4.0 0.00 0.00 0.00 64 1015.7
20260506161519 65 224 2.0 4.0 0.00 0.00 0.00 64 1015.5
20260506160019 65 323 1.0 5.0 0.00 0.00 0.00 64 1015.5
20260506154600 66 321 2.0 8.0 0.00 0.00 0.00 64 1015.5
20260506153102 66 149 2.0 6.0 0.00 0.00 0.00 63 1015.3
20260506151542 67 24 3.0 7.0 0.00 0.00 0.00 61 1015.3
20260506150042 67 19 1.0 6.0 0.00 0.00 0.00 61 1015.3
20260506144530 68 289 1.0 4.0 0.00 0.00 0.00 59 1015.2
20260506143032 68 47 2.0 7.0 0.00 0.00 0.00 60 1015.3
20260506141505 68 300 2.0 10.0 0.00 0.00 0.00 58 1015.2
20260506140005 68 309 2.0 6.0 0.00 0.00 0.00 58 1015.2
20260506134547 69 275 2.0 6.0 0.00 0.00 0.00 58 1015.3
20260506133047 69 254 1.0 6.0 0.00 0.00 0.00 57 1015.3
20260506131534 69 109 3.0 8.0 0.00 0.00 0.00 58 1015.5
20260506130029 69 253 3.0 7.0 0.00 0.00 0.00 59 1015.5
20260506124510 69 300 3.0 8.0 0.00 0.00 0.00 59 1015.6
20260506123011 69 294 3.0 8.0 0.00 0.00 0.00 59 1015.8
20260506121601 69 21 3.0 9.0 0.00 0.00 0.00 59 1015.7
20260506120116 69 130 3.0 7.0 0.00 0.00 0.00 58 1015.8
20260506114533 70 286 3.0 7.0 0.00 0.00 0.00 57 1015.9
20260506113035 71 350 3.0 9.0 0.00 0.00 0.00 56 1016.0
20260506111513 70 279 3.0 8.0 0.00 0.00 0.00 58 1016.0